TimeEST,TemperatureF,Dew PointF,Humidity,Sea Level PressureIn,VisibilityMPH,Wind Direction,Wind SpeedMPH,Gust SpeedMPH,PrecipitationIn,Events,Conditions,WindDirDegrees,DateUTC
12:56 AM,39.9,24.1,53,29.85,10.0,West,15.0,21.9,N/A,,Overcast,260,2013-01-01 05:56:00
1:56 AM,39.9,25.0,55,29.86,10.0,West,12.7,-,N/A,,Overcast,260,2013-01-01 06:56:00
2:56 AM,39.0,25.0,57,29.84,10.0,West,11.5,-,N/A,,Mostly Cloudy,270,2013-01-01 07:56:00
4:56 AM,39.9,25.0,55,29.86,10.0,West,13.8,-,N/A,,Overcast,260,2013-01-01 09:56:00
5:56 AM,39.0,26.1,60,29.85,10.0,WSW,12.7,-,N/A,,Overcast,250,2013-01-01 10:56:00
7:56 AM,39.0,25.0,57,29.86,10.0,West,11.5,-,N/A,,Overcast,270,2013-01-01 12:56:00
8:56 AM,39.0,25.0,57,29.86,10.0,West,12.7,-,N/A,,Overcast,270,2013-01-01 13:56:00
9:56 AM,39.9,26.1,58,29.87,10.0,West,13.8,20.7,N/A,,Overcast,270,2013-01-01 14:56:00
10:56 AM,39.9,26.1,58,29.86,10.0,WNW,16.1,21.9,N/A,,Overcast,290,2013-01-01 15:56:00
11:56 AM,39.0,27.0,62,29.84,10.0,WNW,8.1,-,N/A,,Overcast,300,2013-01-01 16:56:00
12:56 PM,37.9,26.1,62,29.83,10.0,WNW,13.8,18.4,N/A,,Overcast,300,2013-01-01 17:56:00
2:56 PM,37.9,24.1,57,29.83,10.0,WNW,6.9,-,N/A,,Overcast,290,2013-01-01 19:56:00
3:56 PM,37.9,19.9,48,29.84,10.0,WNW,15.0,-,N/A,,Mostly Cloudy,290,2013-01-01 20:56:00
4:56 PM,36.0,19.0,50,29.86,10.0,NW,11.5,-,N/A,,Mostly Cloudy,310,2013-01-01 21:56:00
5:56 PM,35.1,16.0,46,29.88,10.0,NW,18.4,24.2,N/A,,Mostly Cloudy,310,2013-01-01 22:56:00
6:56 PM,34.0,14.0,44,29.90,10.0,NW,13.8,21.9,N/A,,Mostly Cloudy,320,2013-01-01 23:56:00
7:56 PM,32.0,12.9,45,29.91,10.0,NW,15.0,20.7,N/A,,Mostly Cloudy,320,2013-01-02 00:56:00
8:56 PM,30.9,12.0,46,29.93,10.0,WNW,10.4,-,N/A,,Mostly Cloudy,300,2013-01-02 01:56:00
9:56 PM,30.0,10.0,43,29.94,10.0,NW,15.0,23.0,N/A,,Mostly Cloudy,310,2013-01-02 02:56:00
10:56 PM,28.9,12.0,49,29.97,10.0,NW,10.4,-,N/A,,Mostly Cloudy,310,2013-01-02 03:56:00
11:56 PM,28.0,12.0,51,29.97,10.0,WNW,10.4,-,N/A,,Mostly Cloudy,300,2013-01-02 04:56:00